Wolke Sonne

Wetter Ammerndorf

Gehe zu: Roßtal

Tageswerte vom Montag, 28.03.2022

Optionen

Tag:
Erweitert:

Alle Werte vom Montag, 28.03.2022

Einen Moment bitte, die Daten werden aufbereitet...

UhrzeitTemperaturBoden 10cmBoden 20cmFeuchteLuftdruckNiederschlagEvapotranspirationWindWindböenWindrichtungSolarstrahlungUV-IndexSonne?Uhrzeit
Diagramm IconDiagramm IconDiagramm IconDiagramm IconDiagramm IconDiagramm IconDiagramm IconDiagramm IconDiagramm IconDiagramm IconDiagramm IconDiagramm IconDiagramm Icon
00:005,1 °C 7,2 °C 6,7 °C 87 % 1028,7 hPa 0,0 mm - 0,0 km/h 0,0 km/h N 0,0 W/qm 0,0 nein 00:00
00:054,9 °C 7,2 °C 6,7 °C 87 % 1028,7 hPa 0,0 mm 0,0 mm 0,0 km/h 0,0 km/h N 0,0 W/qm 0,0 nein 00:05
00:104,8 °C 7,2 °C 6,7 °C 87 % 1028,6 hPa 0,0 mm 0,0 mm 0,0 km/h 0,0 km/h N 0,0 W/qm 0,0 nein 00:10
00:154,7 °C 7,2 °C 6,7 °C 88 % 1028,7 hPa 0,0 mm - 0,0 km/h 0,0 km/h N 0,0 W/qm 0,0 nein 00:15
00:204,6 °C 7,2 °C 6,7 °C 88 % 1028,7 hPa 0,0 mm - 0,0 km/h 0,0 km/h N 0,0 W/qm 0,0 nein 00:20
00:254,6 °C 7,2 °C 6,7 °C 88 % 1028,7 hPa 0,0 mm - 0,0 km/h 0,0 km/h N 0,0 W/qm 0,0 nein 00:25
00:304,6 °C 7,2 °C 6,7 °C 88 % 1028,7 hPa 0,0 mm - 0,0 km/h 0,0 km/h N 0,0 W/qm 0,0 nein 00:30
00:354,6 °C 7,2 °C 6,7 °C 89 % 1028,6 hPa 0,0 mm - 0,0 km/h 0,0 km/h N 0,0 W/qm 0,0 nein 00:35
00:404,4 °C 7,2 °C 6,7 °C 89 % 1028,6 hPa 0,0 mm - 0,0 km/h 0,0 km/h N 0,0 W/qm 0,0 nein 00:40
00:454,2 °C 7,2 °C 6,7 °C 88 % 1028,5 hPa 0,0 mm - 0,0 km/h 0,0 km/h N 0,0 W/qm 0,0 nein 00:45
00:504,1 °C 7,2 °C 6,7 °C 88 % 1028,5 hPa 0,0 mm - 0,0 km/h 0,0 km/h N 0,0 W/qm 0,0 nein 00:50
00:554,0 °C 7,2 °C 6,7 °C 89 % 1028,6 hPa 0,0 mm - 0,0 km/h 0,0 km/h N 0,0 W/qm 0,0 nein 00:55
01:004,1 °C 7,2 °C 6,7 °C 89 % 1028,4 hPa 0,0 mm - 0,0 km/h 0,0 km/h N 0,0 W/qm 0,0 nein 01:00
01:053,8 °C 7,2 °C 6,7 °C 89 % 1028,5 hPa 0,0 mm 0,0 mm 0,0 km/h 0,0 km/h N 0,0 W/qm 0,0 nein 01:05
01:103,7 °C 6,7 °C 6,7 °C 89 % 1028,4 hPa 0,0 mm 0,0 mm 0,0 km/h 0,0 km/h N 0,0 W/qm 0,0 nein 01:10
01:153,7 °C 6,7 °C 6,7 °C 89 % 1028,3 hPa 0,0 mm - 0,0 km/h 0,0 km/h N 0,0 W/qm 0,0 nein 01:15
01:203,6 °C 6,7 °C 6,7 °C 90 % 1028,4 hPa 0,0 mm - 0,0 km/h 0,0 km/h N 0,0 W/qm 0,0 nein 01:20
01:253,5 °C 6,7 °C 6,7 °C 89 % 1028,4 hPa 0,0 mm - 0,0 km/h 0,0 km/h N 0,0 W/qm 0,0 nein 01:25
01:303,4 °C 6,7 °C 6,7 °C 90 % 1028,4 hPa 0,0 mm - 0,0 km/h 0,0 km/h N 0,0 W/qm 0,0 nein 01:30
01:353,5 °C 6,7 °C 6,7 °C 90 % 1028,4 hPa 0,0 mm - 0,0 km/h 0,0 km/h N 0,0 W/qm 0,0 nein 01:35
01:403,6 °C 6,7 °C 6,7 °C 90 % 1028,3 hPa 0,0 mm - 0,0 km/h 0,0 km/h N 0,0 W/qm 0,0 nein 01:40
01:453,4 °C 6,7 °C 6,7 °C 90 % 1028,3 hPa 0,0 mm - 0,0 km/h 0,0 km/h N 0,0 W/qm 0,0 nein 01:45
01:503,2 °C 6,7 °C 6,7 °C 90 % 1028,4 hPa 0,0 mm - 0,0 km/h 0,0 km/h N 0,0 W/qm 0,0 nein 01:50
01:552,9 °C 6,7 °C 6,7 °C 90 % 1028,3 hPa 0,0 mm - 0,0 km/h 0,0 km/h N 0,0 W/qm 0,0 nein 01:55
UhrzeitTemperaturBoden 10cmBoden 20cmFeuchteLuftdruckNiederschlagEvapotranspirationWindWindböenWindrichtungSolarstrahlungUV-IndexSonne?Uhrzeit
02:002,9 °C 6,7 °C 6,7 °C 90 % 1028,3 hPa 0,0 mm - 0,0 km/h 0,0 km/h N 0,0 W/qm 0,0 nein 02:00
02:052,9 °C 6,7 °C 6,7 °C 91 % 1028,3 hPa 0,0 mm 0,0 mm 0,0 km/h 0,0 km/h N 0,0 W/qm 0,0 nein 02:05
02:102,9 °C 6,7 °C 6,7 °C 91 % 1028,3 hPa 0,0 mm 0,0 mm 0,0 km/h 0,0 km/h N 0,0 W/qm 0,0 nein 02:10
02:152,9 °C 6,7 °C 6,7 °C 91 % 1028,2 hPa 0,0 mm - 0,0 km/h 0,0 km/h N 0,0 W/qm 0,0 nein 02:15
02:202,7 °C 6,7 °C 6,7 °C 91 % 1028,2 hPa 0,0 mm - 0,0 km/h 0,0 km/h N 0,0 W/qm 0,0 nein 02:20
02:252,7 °C 6,7 °C 6,7 °C 91 % 1028,1 hPa 0,0 mm - 0,0 km/h 0,0 km/h N 0,0 W/qm 0,0 nein 02:25
02:302,7 °C 6,7 °C 6,7 °C 91 % 1028,1 hPa 0,0 mm - 0,0 km/h 0,0 km/h N 0,0 W/qm 0,0 nein 02:30
02:352,7 °C 6,7 °C 6,7 °C 91 % 1028,1 hPa 0,0 mm - 0,0 km/h 0,0 km/h N 0,0 W/qm 0,0 nein 02:35
02:402,4 °C 6,7 °C 6,7 °C 91 % 1028,1 hPa 0,0 mm - 0,0 km/h 0,0 km/h N 0,0 W/qm 0,0 nein 02:40
02:452,4 °C 6,7 °C 6,7 °C 91 % 1028,1 hPa 0,0 mm - 0,0 km/h 0,0 km/h N 0,0 W/qm 0,0 nein 02:45
02:502,4 °C 6,7 °C 6,7 °C 91 % 1028,1 hPa 0,0 mm - 0,0 km/h 0,0 km/h N 0,0 W/qm 0,0 nein 02:50
02:552,3 °C 6,7 °C 6,7 °C 91 % 1028,0 hPa 0,0 mm - 0,0 km/h 0,0 km/h N 0,0 W/qm 0,0 nein 02:55
03:002,2 °C 6,7 °C 6,7 °C 91 % 1028,0 hPa 0,0 mm - 0,0 km/h 0,0 km/h N 0,0 W/qm 0,0 nein 03:00
03:052,3 °C 6,7 °C 6,7 °C 91 % 1027,9 hPa 0,0 mm 0,0 mm 0,0 km/h 0,0 km/h N 0,0 W/qm 0,0 nein 03:05
03:102,2 °C 6,7 °C 6,7 °C 91 % 1027,9 hPa 0,0 mm 0,0 mm 0,0 km/h 0,0 km/h N 0,0 W/qm 0,0 nein 03:10
03:152,2 °C 6,7 °C 6,7 °C 91 % 1027,8 hPa 0,0 mm - 0,0 km/h 0,0 km/h N 0,0 W/qm 0,0 nein 03:15
03:202,2 °C 6,7 °C 6,7 °C 91 % 1027,8 hPa 0,0 mm - 0,0 km/h 0,0 km/h N 0,0 W/qm 0,0 nein 03:20
03:252,1 °C 6,7 °C 6,7 °C 92 % 1027,7 hPa 0,0 mm - 0,0 km/h 0,0 km/h N 0,0 W/qm 0,0 nein 03:25
03:302,0 °C 6,7 °C 6,7 °C 91 % 1027,7 hPa 0,0 mm - 0,0 km/h 0,0 km/h N 0,0 W/qm 0,0 nein 03:30
03:352,2 °C 6,7 °C 6,7 °C 92 % 1027,7 hPa 0,0 mm - 0,0 km/h 0,0 km/h N 0,0 W/qm 0,0 nein 03:35
03:402,0 °C 6,7 °C 6,7 °C 92 % 1027,6 hPa 0,0 mm - 0,0 km/h 0,0 km/h N 0,0 W/qm 0,0 nein 03:40
03:451,8 °C 6,7 °C 6,7 °C 92 % 1027,6 hPa 0,0 mm - 0,0 km/h 0,0 km/h N 0,0 W/qm 0,0 nein 03:45
03:501,7 °C 6,7 °C 6,7 °C 92 % 1027,7 hPa 0,0 mm - 0,0 km/h 0,0 km/h N 0,0 W/qm 0,0 nein 03:50
03:551,7 °C 6,7 °C 6,7 °C 92 % 1027,6 hPa 0,0 mm - 0,0 km/h 0,0 km/h N 0,0 W/qm 0,0 nein 03:55
UhrzeitTemperaturBoden 10cmBoden 20cmFeuchteLuftdruckNiederschlagEvapotranspirationWindWindböenWindrichtungSolarstrahlungUV-IndexSonne?Uhrzeit
04:001,6 °C 6,1 °C 6,7 °C 92 % 1027,6 hPa 0,0 mm - 0,0 km/h 0,0 km/h N 0,0 W/qm 0,0 nein 04:00
04:051,6 °C 6,1 °C 6,7 °C 92 % 1027,7 hPa 0,0 mm 0,0 mm 0,0 km/h 0,0 km/h N 0,0 W/qm 0,0 nein 04:05
04:101,7 °C 6,1 °C 6,7 °C 92 % 1027,7 hPa 0,0 mm 0,0 mm 0,0 km/h 0,0 km/h N 0,0 W/qm 0,0 nein 04:10
04:151,7 °C 6,1 °C 6,7 °C 92 % 1027,6 hPa 0,0 mm - 0,0 km/h 0,0 km/h N 0,0 W/qm 0,0 nein 04:15
04:201,6 °C 6,1 °C 6,7 °C 92 % 1027,6 hPa 0,0 mm - 0,0 km/h 0,0 km/h N 0,0 W/qm 0,0 nein 04:20
04:251,6 °C 6,1 °C 6,7 °C 92 % 1027,6 hPa 0,0 mm - 0,0 km/h 0,0 km/h N 0,0 W/qm 0,0 nein 04:25
04:301,6 °C 6,1 °C 6,7 °C 92 % 1027,5 hPa 0,0 mm - 0,0 km/h 0,0 km/h N 0,0 W/qm 0,0 nein 04:30
04:351,4 °C 6,1 °C 6,7 °C 92 % 1027,6 hPa 0,0 mm - 0,0 km/h 0,0 km/h N 0,0 W/qm 0,0 nein 04:35
04:401,3 °C 6,1 °C 6,7 °C 92 % 1027,5 hPa 0,0 mm - 0,0 km/h 0,0 km/h N 0,0 W/qm 0,0 nein 04:40
04:451,3 °C 6,1 °C 6,7 °C 92 % 1027,4 hPa 0,0 mm - 0,0 km/h 0,0 km/h N 0,0 W/qm 0,0 nein 04:45
04:501,3 °C 6,1 °C 6,7 °C 92 % 1027,4 hPa 0,0 mm - 0,0 km/h 0,0 km/h N 0,0 W/qm 0,0 nein 04:50
04:551,3 °C 6,1 °C 6,7 °C 92 % 1027,3 hPa 0,0 mm - 0,0 km/h 0,0 km/h N 0,0 W/qm 0,0 nein 04:55
05:001,2 °C 6,1 °C 6,7 °C 92 % 1027,3 hPa 0,0 mm - 0,0 km/h 0,0 km/h N 0,0 W/qm 0,0 nein 05:00
05:051,1 °C 6,1 °C 6,7 °C 92 % 1027,2 hPa 0,0 mm 0,0 mm 0,0 km/h 0,0 km/h N 0,0 W/qm 0,0 nein 05:05
05:100,9 °C 6,1 °C 6,7 °C 92 % 1027,3 hPa 0,0 mm 0,0 mm 0,0 km/h 0,0 km/h N 0,0 W/qm 0,0 nein 05:10
05:150,9 °C 6,1 °C 6,7 °C 92 % 1027,3 hPa 0,0 mm - 0,0 km/h 0,0 km/h N 0,0 W/qm 0,0 nein 05:15
05:200,8 °C 6,1 °C 6,7 °C 92 % 1027,3 hPa 0,0 mm - 0,0 km/h 0,0 km/h N 0,0 W/qm 0,0 nein 05:20
05:250,8 °C 6,1 °C 6,7 °C 92 % 1027,2 hPa 0,0 mm - 0,0 km/h 0,0 km/h N 0,0 W/qm 0,0 nein 05:25
05:300,9 °C 6,1 °C 6,7 °C 93 % 1027,1 hPa 0,0 mm - 0,0 km/h 0,0 km/h N 0,0 W/qm 0,0 nein 05:30
05:350,8 °C 6,1 °C 6,7 °C 92 % 1027,2 hPa 0,0 mm - 0,0 km/h 0,0 km/h N 0,0 W/qm 0,0 nein 05:35
05:400,7 °C 6,1 °C 6,7 °C 93 % 1027,2 hPa 0,0 mm - 0,0 km/h 0,0 km/h N 0,0 W/qm 0,0 nein 05:40
05:450,5 °C 6,1 °C 6,7 °C 92 % 1027,1 hPa 0,0 mm - 0,0 km/h 0,0 km/h N 0,0 W/qm 0,0 nein 05:45
05:500,6 °C 6,1 °C 6,7 °C 93 % 1027,1 hPa 0,0 mm - 0,0 km/h 0,0 km/h N 0,0 W/qm 0,0 nein 05:50
05:550,5 °C 6,1 °C 6,7 °C 93 % 1027,1 hPa 0,0 mm - 0,0 km/h 0,0 km/h N 0,0 W/qm 0,0 nein 05:55
UhrzeitTemperaturBoden 10cmBoden 20cmFeuchteLuftdruckNiederschlagEvapotranspirationWindWindböenWindrichtungSolarstrahlungUV-IndexSonne?Uhrzeit
06:000,5 °C 6,1 °C 6,7 °C 93 % 1027,1 hPa 0,0 mm - 0,0 km/h 0,0 km/h N 0,0 W/qm 0,0 nein 06:00
06:050,5 °C 6,1 °C 6,7 °C 93 % 1027,0 hPa 0,0 mm 0,0 mm 0,0 km/h 0,0 km/h N 0,0 W/qm 0,0 nein 06:05
06:100,4 °C 6,1 °C 6,7 °C 93 % 1027,0 hPa 0,0 mm 0,0 mm 0,0 km/h 0,0 km/h N 0,0 W/qm 0,0 nein 06:10
06:150,5 °C 6,1 °C 6,7 °C 93 % 1026,9 hPa 0,0 mm - 0,0 km/h 0,0 km/h N 0,0 W/qm 0,0 nein 06:15
06:200,3 °C 6,1 °C 6,7 °C 93 % 1026,9 hPa 0,0 mm - 0,0 km/h 0,0 km/h N 0,0 W/qm 0,0 nein 06:20
06:250,1 °C 6,1 °C 6,7 °C 93 % 1027,0 hPa 0,0 mm - 0,0 km/h 0,0 km/h N 0,0 W/qm 0,0 nein 06:25
06:300,3 °C 6,1 °C 6,7 °C 93 % 1026,8 hPa 0,0 mm - 0,0 km/h 0,0 km/h N 0,0 W/qm 0,0 nein 06:30
06:350,3 °C 6,1 °C 6,7 °C 93 % 1026,7 hPa 0,0 mm - 0,0 km/h 0,0 km/h N 0,0 W/qm 0,0 nein 06:35
06:400,3 °C 6,1 °C 6,7 °C 93 % 1026,7 hPa 0,0 mm - 0,0 km/h 0,0 km/h N 0,0 W/qm 0,0 nein 06:40
06:450,2 °C 6,1 °C 6,7 °C 93 % 1026,7 hPa 0,0 mm - 0,0 km/h 0,0 km/h N 0,0 W/qm 0,0 nein 06:45
06:500,2 °C 6,1 °C 6,7 °C 93 % 1026,9 hPa 0,0 mm - 0,0 km/h 0,0 km/h N 0,0 W/qm 0,0 nein 06:50
06:550,2 °C 6,1 °C 6,7 °C 93 % 1026,9 hPa 0,0 mm - 0,0 km/h 0,0 km/h N 0,0 W/qm 0,0 nein 06:55
07:000,2 °C 6,1 °C 6,7 °C 93 % 1026,9 hPa 0,0 mm - 0,0 km/h 0,0 km/h N 5,0 W/qm 0,0 nein 07:00
07:050,1 °C 6,1 °C 6,7 °C 93 % 1026,8 hPa 0,0 mm 0,0 mm 0,0 km/h 0,0 km/h N 7,0 W/qm 0,0 nein 07:05
07:100,0 °C 5,6 °C 6,7 °C 93 % 1026,8 hPa 0,0 mm 0,0 mm 0,0 km/h 0,0 km/h N 9,0 W/qm 0,0 nein 07:10
07:15-0,1 °C 5,6 °C 6,7 °C 93 % 1026,9 hPa 0,0 mm - 0,0 km/h 0,0 km/h N 12,0 W/qm 0,0 nein 07:15
07:200,1 °C 5,6 °C 6,7 °C 93 % 1026,9 hPa 0,0 mm - 0,0 km/h 0,0 km/h N 14,0 W/qm 0,0 nein 07:20
07:250,1 °C 5,6 °C 6,1 °C 93 % 1026,9 hPa 0,0 mm - 0,0 km/h 0,0 km/h N 18,0 W/qm 0,0 nein 07:25
07:300,2 °C 5,6 °C 6,1 °C 93 % 1026,9 hPa 0,0 mm - 0,0 km/h 0,0 km/h N 21,0 W/qm 0,0 nein 07:30
07:350,2 °C 5,6 °C 6,1 °C 93 % 1026,9 hPa 0,0 mm - 0,0 km/h 0,0 km/h N 25,0 W/qm 0,0 nein 07:35
07:400,3 °C 5,6 °C 6,1 °C 93 % 1026,8 hPa 0,0 mm - 0,0 km/h 0,0 km/h N 26,0 W/qm 0,0 nein 07:40
07:450,3 °C 5,6 °C 6,1 °C 93 % 1026,8 hPa 0,0 mm - 0,0 km/h 0,0 km/h N 30,0 W/qm 0,0 nein 07:45
07:500,3 °C 5,6 °C 6,1 °C 93 % 1026,8 hPa 0,0 mm - 0,0 km/h 0,0 km/h N 32,0 W/qm 0,0 nein 07:50
07:550,4 °C 5,6 °C 6,1 °C 93 % 1026,7 hPa 0,0 mm - 0,0 km/h 0,0 km/h N 35,0 W/qm 0,0 nein 07:55
UhrzeitTemperaturBoden 10cmBoden 20cmFeuchteLuftdruckNiederschlagEvapotranspirationWindWindböenWindrichtungSolarstrahlungUV-IndexSonne?Uhrzeit
08:000,5 °C 5,6 °C 6,1 °C 93 % 1026,8 hPa 0,0 mm - 0,0 km/h 0,0 km/h N 37,0 W/qm 0,0 nein 08:00
08:050,6 °C 5,6 °C 6,1 °C 93 % 1026,8 hPa 0,0 mm 0,0 mm 0,0 km/h 0,0 km/h N 40,0 W/qm 0,0 nein 08:05
08:100,6 °C 5,6 °C 6,1 °C 93 % 1026,7 hPa 0,0 mm 0,0 mm 0,0 km/h 0,0 km/h N 44,0 W/qm 0,0 nein 08:10
08:150,6 °C 5,6 °C 6,1 °C 93 % 1026,7 hPa 0,0 mm - 0,0 km/h 0,0 km/h N 51,0 W/qm 0,0 nein 08:15
08:200,8 °C 5,6 °C 6,1 °C 93 % 1026,8 hPa 0,0 mm - 0,0 km/h 0,0 km/h N 53,0 W/qm 0,0 nein 08:20
08:251,1 °C 5,6 °C 6,1 °C 93 % 1026,6 hPa 0,0 mm - 0,0 km/h 0,0 km/h N 54,0 W/qm 0,0 nein 08:25
08:301,2 °C 5,6 °C 6,1 °C 93 % 1026,6 hPa 0,0 mm - 0,0 km/h 0,0 km/h N 58,0 W/qm 0,0 nein 08:30
08:351,4 °C 5,6 °C 6,1 °C 93 % 1026,6 hPa 0,0 mm - 0,0 km/h 0,0 km/h N 60,0 W/qm 0,0 nein 08:35
08:401,7 °C 5,6 °C 6,1 °C 93 % 1026,4 hPa 0,0 mm - 0,0 km/h 0,0 km/h N 62,0 W/qm 0,0 nein 08:40
08:452,0 °C 5,6 °C 6,1 °C 93 % 1026,3 hPa 0,0 mm - 0,0 km/h 0,0 km/h N 63,0 W/qm 0,0 nein 08:45
08:502,6 °C 5,6 °C 6,1 °C 93 % 1026,2 hPa 0,0 mm - 0,0 km/h 0,0 km/h N 65,0 W/qm 0,0 nein 08:50
08:553,1 °C 5,6 °C 6,1 °C 93 % 1026,1 hPa 0,0 mm - 0,0 km/h 0,0 km/h N 67,0 W/qm 0,0 nein 08:55
09:003,4 °C 5,6 °C 6,1 °C 93 % 1026,0 hPa 0,0 mm - 0,0 km/h 0,0 km/h N 69,0 W/qm 0,0 nein 09:00
09:053,8 °C 5,6 °C 6,1 °C 93 % 1025,9 hPa 0,0 mm 0,0 mm 0,0 km/h 0,0 km/h N 72,0 W/qm 0,5 nein 09:05
09:104,2 °C 5,6 °C 6,1 °C 93 % 1025,8 hPa 0,0 mm 0,0 mm 0,0 km/h 0,0 km/h N 272,0 W/qm 0,5 nein 09:10
09:154,6 °C 5,6 °C 6,1 °C 93 % 1025,8 hPa 0,0 mm - 0,0 km/h 0,0 km/h N 287,0 W/qm 0,6 ja 09:15
09:204,9 °C 5,6 °C 6,1 °C 93 % 1025,7 hPa 0,0 mm - 0,0 km/h 0,0 km/h N 301,0 W/qm 0,6 ja 09:20
09:255,4 °C 5,6 °C 6,1 °C 93 % 1025,5 hPa 0,0 mm - 0,0 km/h 0,0 km/h N 315,0 W/qm 0,6 ja 09:25
09:305,9 °C 5,6 °C 6,1 °C 92 % 1025,5 hPa 0,0 mm - 0,0 km/h 0,0 km/h N 325,0 W/qm 0,7 ja 09:30
09:356,3 °C 5,6 °C 6,1 °C 92 % 1025,3 hPa 0,0 mm - 0,0 km/h 0,0 km/h N 343,0 W/qm 0,7 ja 09:35
09:406,8 °C 5,6 °C 6,1 °C 91 % 1025,2 hPa 0,0 mm - 0,0 km/h 0,0 km/h N 364,0 W/qm 0,8 ja 09:40
09:457,3 °C 5,6 °C 6,1 °C 90 % 1025,0 hPa 0,0 mm - 0,0 km/h 0,0 km/h NNO 381,0 W/qm 0,9 ja 09:45
09:507,9 °C 5,6 °C 6,1 °C 88 % 1024,9 hPa 0,0 mm - 0,0 km/h 0,0 km/h NNO 394,0 W/qm 1,0 ja 09:50
09:558,4 °C 5,6 °C 6,1 °C 86 % 1024,9 hPa 0,0 mm - 0,0 km/h 0,0 km/h NNO 406,0 W/qm 1,0 ja 09:55
UhrzeitTemperaturBoden 10cmBoden 20cmFeuchteLuftdruckNiederschlagEvapotranspirationWindWindböenWindrichtungSolarstrahlungUV-IndexSonne?Uhrzeit
10:008,9 °C 5,6 °C 6,1 °C 84 % 1024,7 hPa 0,0 mm - 0,0 km/h 0,0 km/h SO 420,0 W/qm 1,1 ja 10:00
10:059,4 °C 5,6 °C 6,1 °C 82 % 1024,5 hPa 0,0 mm 0,2 mm 0,0 km/h 3,2 km/h SO 431,0 W/qm 1,1 ja 10:05
10:109,7 °C 5,6 °C 6,1 °C 80 % 1024,5 hPa 0,0 mm 0,2 mm 0,0 km/h 3,2 km/h SSO 445,0 W/qm 1,2 ja 10:10
10:1510,1 °C 5,6 °C 6,1 °C 78 % 1024,4 hPa 0,0 mm - 0,0 km/h 4,7 km/h SSO 457,0 W/qm 1,2 ja 10:15
10:2010,3 °C 5,6 °C 6,1 °C 77 % 1024,3 hPa 0,0 mm - 0,0 km/h 4,7 km/h SSO 471,0 W/qm 1,3 ja 10:20
10:2510,8 °C 5,6 °C 6,1 °C 76 % 1024,2 hPa 0,0 mm - 0,0 km/h 4,7 km/h SSO 485,0 W/qm 1,4 ja 10:25
10:3011,4 °C 5,6 °C 6,1 °C 75 % 1024,0 hPa 0,0 mm - 0,0 km/h 3,2 km/h SSO 496,0 W/qm 1,4 ja 10:30
10:3511,9 °C 5,6 °C 6,1 °C 73 % 1024,0 hPa 0,0 mm - 0,0 km/h 3,2 km/h SSO 506,0 W/qm 1,5 ja 10:35
10:4012,4 °C 5,6 °C 6,1 °C 72 % 1023,8 hPa 0,0 mm - 0,0 km/h 3,2 km/h SSO 517,0 W/qm 1,5 ja 10:40
10:4512,8 °C 5,6 °C 6,1 °C 69 % 1023,6 hPa 0,0 mm - 1,4 km/h 4,7 km/h S 529,0 W/qm 1,6 ja 10:45
10:5013,0 °C 5,6 °C 6,1 °C 68 % 1023,6 hPa 0,0 mm - 3,2 km/h 4,7 km/h S 540,0 W/qm 1,6 ja 10:50
10:5513,5 °C 5,6 °C 6,1 °C 67 % 1023,5 hPa 0,0 mm - 1,4 km/h 6,5 km/h S 550,0 W/qm 1,7 ja 10:55
11:0014,1 °C 5,6 °C 6,1 °C 65 % 1023,3 hPa 0,0 mm - 1,4 km/h 6,5 km/h S 563,0 W/qm 1,7 ja 11:00
11:0514,2 °C 5,6 °C 6,1 °C 62 % 1023,3 hPa 0,0 mm 0,4 mm 1,4 km/h 6,5 km/h S 571,0 W/qm 1,8 ja 11:05
11:1014,6 °C 5,6 °C 6,1 °C 64 % 1023,2 hPa 0,0 mm 0,4 mm 1,4 km/h 6,5 km/h S 582,0 W/qm 1,9 ja 11:10
11:1514,7 °C 5,6 °C 6,1 °C 61 % 1023,1 hPa 0,0 mm - 0,0 km/h 6,5 km/h S 592,0 W/qm 1,9 ja 11:15
11:2015,0 °C 5,6 °C 6,1 °C 60 % 1022,9 hPa 0,0 mm - 0,0 km/h 4,7 km/h S 603,0 W/qm 2,0 ja 11:20
11:2515,4 °C 5,6 °C 6,1 °C 58 % 1022,9 hPa 0,0 mm - 0,0 km/h 4,7 km/h S 613,0 W/qm 2,0 ja 11:25
11:3015,5 °C 5,6 °C 6,1 °C 56 % 1022,8 hPa 0,0 mm - 1,4 km/h 6,5 km/h S 621,0 W/qm 2,1 ja 11:30
11:3515,6 °C 6,1 °C 6,1 °C 57 % 1022,6 hPa 0,0 mm - 1,4 km/h 6,5 km/h S 626,0 W/qm 2,1 ja 11:35
11:4015,8 °C 6,1 °C 6,1 °C 57 % 1022,5 hPa 0,0 mm - 1,4 km/h 6,5 km/h ONO 631,0 W/qm 2,2 ja 11:40
11:4516,2 °C 6,1 °C 6,1 °C 50 % 1022,4 hPa 0,0 mm - 1,4 km/h 3,2 km/h S 638,0 W/qm 2,2 ja 11:45
11:5017,0 °C 6,1 °C 6,1 °C 47 % 1022,2 hPa 0,0 mm - 1,4 km/h 4,7 km/h S 643,0 W/qm 2,2 ja 11:50
11:5517,1 °C 6,1 °C 6,1 °C 45 % 1022,0 hPa 0,0 mm - 1,4 km/h 7,9 km/h S 650,0 W/qm 2,3 ja 11:55
UhrzeitTemperaturBoden 10cmBoden 20cmFeuchteLuftdruckNiederschlagEvapotranspirationWindWindböenWindrichtungSolarstrahlungUV-IndexSonne?Uhrzeit
12:0017,3 °C 6,1 °C 6,1 °C 43 % 1021,9 hPa 0,0 mm - 3,2 km/h 7,9 km/h S 657,0 W/qm 2,3 ja 12:00
12:0517,5 °C 6,1 °C 6,1 °C 38 % 1021,9 hPa 0,0 mm 0,7 mm 4,7 km/h 11,2 km/h S 661,0 W/qm 2,3 ja 12:05
12:1017,7 °C 6,1 °C 6,1 °C 37 % 1021,8 hPa 0,0 mm 0,7 mm 6,5 km/h 14,4 km/h SSW 673,0 W/qm 2,3 ja 12:10
12:1517,7 °C 6,1 °C 6,1 °C 36 % 1021,8 hPa 0,0 mm - 6,5 km/h 14,4 km/h S 679,0 W/qm 2,3 ja 12:15
12:2018,0 °C 6,1 °C 6,1 °C 39 % 1021,6 hPa 0,0 mm - 6,5 km/h 14,4 km/h SSW 689,0 W/qm 2,4 ja 12:20
12:2518,2 °C 6,1 °C 6,1 °C 37 % 1021,5 hPa 0,0 mm - 6,5 km/h 14,4 km/h SSW 689,0 W/qm 2,4 ja 12:25
12:3017,9 °C 6,1 °C 6,1 °C 35 % 1021,5 hPa 0,0 mm - 6,5 km/h 16,2 km/h NW 694,0 W/qm 2,4 ja 12:30
12:3518,2 °C 6,1 °C 6,1 °C 35 % 1021,3 hPa 0,0 mm - 4,7 km/h 16,2 km/h S 700,0 W/qm 2,5 ja 12:35
12:4018,6 °C 6,1 °C 6,1 °C 35 % 1021,1 hPa 0,0 mm - 6,5 km/h 13,0 km/h SSO 703,0 W/qm 2,5 ja 12:40
12:4518,3 °C 6,7 °C 6,1 °C 36 % 1021,1 hPa 0,0 mm - 7,9 km/h 17,6 km/h WSW 698,0 W/qm 2,5 ja 12:45
12:5018,3 °C 6,7 °C 6,1 °C 36 % 1021,1 hPa 0,0 mm - 4,7 km/h 17,6 km/h SW 703,0 W/qm 2,5 ja 12:50
12:5518,4 °C 6,7 °C 6,1 °C 34 % 1021,0 hPa 0,0 mm - 3,2 km/h 17,6 km/h S 703,0 W/qm 2,5 ja 12:55
13:0018,6 °C 6,7 °C 6,1 °C 34 % 1020,8 hPa 0,0 mm - 3,2 km/h 14,4 km/h S 708,0 W/qm 2,6 ja 13:00
13:0518,7 °C 6,7 °C 6,1 °C 34 % 1020,7 hPa 0,0 mm 1,2 mm 4,7 km/h 14,4 km/h SSO 710,0 W/qm 2,6 ja 13:05
13:1018,7 °C 6,7 °C 6,1 °C 34 % 1020,6 hPa 0,0 mm 1,2 mm 4,7 km/h 13,0 km/h WNW 717,0 W/qm 2,6 ja 13:10
13:1518,8 °C 6,7 °C 6,1 °C 33 % 1020,5 hPa 0,0 mm - 6,5 km/h 13,0 km/h SW 712,0 W/qm 2,6 ja 13:15
13:2019,0 °C 6,7 °C 6,1 °C 32 % 1020,4 hPa 0,0 mm - 7,9 km/h 17,6 km/h SW 710,0 W/qm 2,5 ja 13:20
13:2518,9 °C 6,7 °C 6,1 °C 33 % 1020,4 hPa 0,0 mm - 7,9 km/h 17,6 km/h W 714,0 W/qm 2,5 ja 13:25
13:3019,1 °C 6,7 °C 6,1 °C 33 % 1020,2 hPa 0,0 mm - 6,5 km/h 17,6 km/h SW 712,0 W/qm 2,5 ja 13:30
13:3519,2 °C 6,7 °C 6,1 °C 31 % 1020,0 hPa 0,0 mm - 6,5 km/h 19,4 km/h ONO 714,0 W/qm 2,5 ja 13:35
13:4019,2 °C 7,2 °C 6,1 °C 33 % 1020,0 hPa 0,0 mm - 4,7 km/h 19,4 km/h SW 712,0 W/qm 2,6 ja 13:40
13:4519,2 °C 7,2 °C 6,1 °C 31 % 1019,9 hPa 0,0 mm - 4,7 km/h 19,4 km/h SW 705,0 W/qm 2,5 ja 13:45
13:5019,3 °C 7,2 °C 6,1 °C 31 % 1019,9 hPa 0,0 mm - 4,7 km/h 17,6 km/h SSW 703,0 W/qm 2,5 ja 13:50
13:5519,2 °C 7,2 °C 6,1 °C 30 % 1019,8 hPa 0,0 mm - 4,7 km/h 13,0 km/h O 700,0 W/qm 2,5 ja 13:55
UhrzeitTemperaturBoden 10cmBoden 20cmFeuchteLuftdruckNiederschlagEvapotranspirationWindWindböenWindrichtungSolarstrahlungUV-IndexSonne?Uhrzeit
14:0019,3 °C 7,2 °C 6,7 °C 31 % 1019,7 hPa 0,0 mm - 6,5 km/h 14,4 km/h S 698,0 W/qm 2,5 ja 14:00
14:0519,4 °C 7,2 °C 6,7 °C 30 % 1019,6 hPa 0,0 mm 1,6 mm 9,7 km/h 19,4 km/h SSO 696,0 W/qm 2,4 ja 14:05
14:1019,8 °C 7,2 °C 6,7 °C 29 % 1019,5 hPa 0,0 mm 1,6 mm 9,7 km/h 19,4 km/h S 696,0 W/qm 2,4 ja 14:10
14:1519,7 °C 7,2 °C 6,7 °C 30 % 1019,3 hPa 0,0 mm - 9,7 km/h 22,7 km/h SSW 691,0 W/qm 2,3 ja 14:15
14:2019,7 °C 7,8 °C 6,7 °C 30 % 1019,2 hPa 0,0 mm - 9,7 km/h 22,7 km/h SW 680,0 W/qm 2,3 ja 14:20
14:2519,8 °C 7,8 °C 6,7 °C 31 % 1019,1 hPa 0,0 mm - 11,2 km/h 19,4 km/h SSW 679,0 W/qm 2,3 ja 14:25
14:3019,8 °C 7,8 °C 6,7 °C 29 % 1019,1 hPa 0,0 mm - 13,0 km/h 28,8 km/h SW 671,0 W/qm 2,2 ja 14:30
14:3519,9 °C 7,8 °C 6,7 °C 29 % 1018,8 hPa 0,0 mm - 9,7 km/h 28,8 km/h S 663,0 W/qm 2,2 ja 14:35
14:4020,0 °C 7,8 °C 6,7 °C 30 % 1018,7 hPa 0,0 mm - 9,7 km/h 28,8 km/h SSW 661,0 W/qm 2,2 ja 14:40
14:4519,9 °C 7,8 °C 6,7 °C 29 % 1018,7 hPa 0,0 mm - 9,7 km/h 19,4 km/h WNW 652,0 W/qm 2,1 ja 14:45
14:5020,1 °C 7,8 °C 6,7 °C 28 % 1018,6 hPa 0,0 mm - 6,5 km/h 17,6 km/h WNW 652,0 W/qm 2,1 ja 14:50
14:5519,9 °C 7,8 °C 6,7 °C 28 % 1018,5 hPa 0,0 mm - 6,5 km/h 17,6 km/h S 650,0 W/qm 2,1 ja 14:55
15:0020,1 °C 7,8 °C 6,7 °C 28 % 1018,4 hPa 0,0 mm - 7,9 km/h 17,6 km/h SSW 640,0 W/qm 2,0 ja 15:00
15:0520,1 °C 7,8 °C 6,7 °C 28 % 1018,3 hPa 0,0 mm 2,1 mm 6,5 km/h 17,6 km/h OSO 635,0 W/qm 2,0 ja 15:05
15:1020,0 °C 8,3 °C 6,7 °C 29 % 1018,4 hPa 0,0 mm 2,1 mm 4,7 km/h 17,6 km/h WSW 629,0 W/qm 2,0 ja 15:10
15:1520,1 °C 8,3 °C 6,7 °C 27 % 1018,2 hPa 0,0 mm - 6,5 km/h 16,2 km/h SW 622,0 W/qm 1,9 ja 15:15
15:2020,1 °C 8,3 °C 6,7 °C 28 % 1018,2 hPa 0,0 mm - 6,5 km/h 20,9 km/h S 608,0 W/qm 1,9 ja 15:20
15:2520,0 °C 8,3 °C 6,7 °C 27 % 1018,1 hPa 0,0 mm - 6,5 km/h 20,9 km/h SSW 599,0 W/qm 1,8 ja 15:25
15:3019,9 °C 8,3 °C 6,7 °C 27 % 1018,0 hPa 0,0 mm - 7,9 km/h 19,4 km/h SSW 591,0 W/qm 1,8 ja 15:30
15:3520,1 °C 8,3 °C 6,7 °C 27 % 1018,0 hPa 0,0 mm - 7,9 km/h 19,4 km/h SSW 584,0 W/qm 1,7 ja 15:35
15:4019,8 °C 8,3 °C 6,7 °C 26 % 1017,9 hPa 0,0 mm - 7,9 km/h 19,4 km/h SSW 577,0 W/qm 1,7 ja 15:40
15:4519,8 °C 8,3 °C 6,7 °C 27 % 1017,7 hPa 0,0 mm - 6,5 km/h 17,6 km/h NNO 566,0 W/qm 1,6 ja 15:45
15:5019,8 °C 8,3 °C 6,7 °C 28 % 1017,7 hPa 0,0 mm - 6,5 km/h 16,2 km/h WSW 559,0 W/qm 1,6 ja 15:50
15:5519,9 °C 8,3 °C 6,7 °C 27 % 1017,7 hPa 0,0 mm - 7,9 km/h 19,4 km/h SSO 545,0 W/qm 1,5 ja 15:55
UhrzeitTemperaturBoden 10cmBoden 20cmFeuchteLuftdruckNiederschlagEvapotranspirationWindWindböenWindrichtungSolarstrahlungUV-IndexSonne?Uhrzeit
16:0019,9 °C 8,3 °C 6,7 °C 26 % 1017,6 hPa 0,0 mm - 9,7 km/h 19,4 km/h SW 534,0 W/qm 1,5 ja 16:00
16:0519,9 °C 8,3 °C 6,7 °C 27 % 1017,5 hPa 0,0 mm 2,5 mm 9,7 km/h 19,4 km/h WSW 529,0 W/qm 1,4 ja 16:05
16:1019,9 °C 8,3 °C 6,7 °C 26 % 1017,5 hPa 0,0 mm 2,5 mm 7,9 km/h 19,4 km/h WNW 520,0 W/qm 1,4 ja 16:10
16:1519,8 °C 8,9 °C 6,7 °C 26 % 1017,4 hPa 0,0 mm - 6,5 km/h 19,4 km/h SW 508,0 W/qm 1,3 ja 16:15
16:2019,8 °C 8,9 °C 6,7 °C 25 % 1017,3 hPa 0,0 mm - 7,9 km/h 16,2 km/h SSW 497,0 W/qm 1,3 ja 16:20
16:2519,7 °C 8,9 °C 6,7 °C 26 % 1017,3 hPa 0,0 mm - 7,9 km/h 16,2 km/h SW 489,0 W/qm 1,2 ja 16:25
16:3019,6 °C 8,9 °C 6,7 °C 25 % 1017,2 hPa 0,0 mm - 7,9 km/h 20,9 km/h SSW 471,0 W/qm 1,2 ja 16:30
16:3519,5 °C 8,9 °C 7,2 °C 26 % 1017,1 hPa 0,0 mm - 6,5 km/h 20,9 km/h WSW 459,0 W/qm 1,1 ja 16:35
16:4019,6 °C 8,9 °C 7,2 °C 27 % 1017,0 hPa 0,0 mm - 7,9 km/h 20,9 km/h SW 448,0 W/qm 1,1 ja 16:40
16:4519,7 °C 8,9 °C 7,2 °C 26 % 1016,9 hPa 0,0 mm - 7,9 km/h 16,2 km/h WNW 434,0 W/qm 1,0 ja 16:45
16:5019,6 °C 8,9 °C 7,2 °C 27 % 1016,9 hPa 0,0 mm - 6,5 km/h 16,2 km/h WNW 422,0 W/qm 1,0 ja 16:50
16:5519,6 °C 8,9 °C 7,2 °C 27 % 1016,8 hPa 0,0 mm - 6,5 km/h 16,2 km/h SW 411,0 W/qm 1,0 ja 16:55
17:0019,6 °C 8,9 °C 7,2 °C 27 % 1016,8 hPa 0,0 mm - 7,9 km/h 16,2 km/h SW 397,0 W/qm 0,9 ja 17:00
17:0519,5 °C 8,9 °C 7,2 °C 27 % 1016,7 hPa 0,0 mm 2,9 mm 7,9 km/h 19,4 km/h SW 381,0 W/qm 0,9 ja 17:05
17:1019,4 °C 8,9 °C 7,2 °C 27 % 1016,6 hPa 0,0 mm 2,9 mm 6,5 km/h 19,4 km/h SSO 373,0 W/qm 0,8 ja 17:10
17:1519,6 °C 8,9 °C 7,2 °C 27 % 1016,5 hPa 0,0 mm - 7,9 km/h 19,4 km/h S 352,0 W/qm 0,8 ja 17:15
17:2019,5 °C 8,9 °C 7,2 °C 27 % 1016,5 hPa 0,0 mm - 7,9 km/h 16,2 km/h SW 345,0 W/qm 0,7 ja 17:20
17:2519,3 °C 8,9 °C 7,2 °C 28 % 1016,4 hPa 0,0 mm - 6,5 km/h 16,2 km/h S 332,0 W/qm 0,7 ja 17:25
17:3019,2 °C 8,9 °C 7,2 °C 27 % 1016,4 hPa 0,0 mm - 6,5 km/h 16,2 km/h SW 320,0 W/qm 0,6 ja 17:30
17:3519,2 °C 8,9 °C 7,2 °C 27 % 1016,4 hPa 0,0 mm - 6,5 km/h 17,6 km/h SW 302,0 W/qm 0,6 ja 17:35
17:4019,2 °C 8,9 °C 7,2 °C 27 % 1016,3 hPa 0,0 mm - 4,7 km/h 17,6 km/h SW 294,0 W/qm 0,6 ja 17:40
17:4519,0 °C 8,9 °C 7,2 °C 27 % 1016,2 hPa 0,0 mm - 4,7 km/h 17,6 km/h WSW 294,0 W/qm 0,5 ja 17:45
17:5019,0 °C 8,9 °C 7,2 °C 28 % 1016,1 hPa 0,0 mm - 6,5 km/h 13,0 km/h WSW 274,0 W/qm 0,5 ja 17:50
17:5518,8 °C 8,9 °C 7,2 °C 27 % 1016,3 hPa 0,0 mm - 7,9 km/h 16,2 km/h SW 258,0 W/qm 0,5 nein 17:55
UhrzeitTemperaturBoden 10cmBoden 20cmFeuchteLuftdruckNiederschlagEvapotranspirationWindWindböenWindrichtungSolarstrahlungUV-IndexSonne?Uhrzeit
18:0018,7 °C 8,9 °C 7,2 °C 27 % 1016,2 hPa 0,0 mm - 6,5 km/h 16,2 km/h S 239,0 W/qm 0,0 nein 18:00
18:0518,6 °C 8,9 °C 7,2 °C 28 % 1016,1 hPa 0,0 mm 3,1 mm 4,7 km/h 16,2 km/h W 220,0 W/qm 0,0 nein 18:05
18:1018,5 °C 8,9 °C 7,2 °C 28 % 1016,1 hPa 0,0 mm 3,1 mm 4,7 km/h 14,4 km/h SW 202,0 W/qm 0,0 nein 18:10
18:1518,5 °C 8,9 °C 7,2 °C 29 % 1016,1 hPa 0,0 mm - 3,2 km/h 14,4 km/h SSW 185,0 W/qm 0,0 nein 18:15
18:2018,4 °C 8,9 °C 7,2 °C 29 % 1016,0 hPa 0,0 mm - 4,7 km/h 14,4 km/h SSO 153,0 W/qm 0,0 nein 18:20
18:2518,2 °C 8,9 °C 7,2 °C 28 % 1015,9 hPa 0,0 mm - 4,7 km/h 17,6 km/h SSW 72,0 W/qm 0,0 nein 18:25
18:3017,9 °C 8,9 °C 7,2 °C 27 % 1016,1 hPa 0,0 mm - 4,7 km/h 17,6 km/h WSW 39,0 W/qm 0,0 nein 18:30
18:3517,7 °C 8,9 °C 7,2 °C 28 % 1016,0 hPa 0,0 mm - 6,5 km/h 14,4 km/h SSW 32,0 W/qm 0,0 nein 18:35
18:4017,2 °C 8,9 °C 7,2 °C 28 % 1016,1 hPa 0,0 mm - 4,7 km/h 17,6 km/h S 23,0 W/qm 0,0 nein 18:40
18:4516,7 °C 8,9 °C 7,2 °C 30 % 1016,1 hPa 0,0 mm - 1,4 km/h 17,6 km/h SW 21,0 W/qm 0,0 nein 18:45
18:5015,9 °C 8,9 °C 7,2 °C 32 % 1016,2 hPa 0,0 mm - 0,0 km/h 14,4 km/h WSW 21,0 W/qm 0,0 nein 18:50
18:5515,5 °C 8,9 °C 7,2 °C 34 % 1016,3 hPa 0,0 mm - 0,0 km/h 7,9 km/h SSW 23,0 W/qm 0,0 nein 18:55
19:0015,3 °C 8,9 °C 7,2 °C 35 % 1016,3 hPa 0,0 mm - 1,4 km/h 7,9 km/h W 25,0 W/qm 0,0 nein 19:00
19:0514,8 °C 8,9 °C 7,2 °C 35 % 1016,5 hPa 0,0 mm 3,2 mm 1,4 km/h 6,5 km/h WSW 28,0 W/qm 0,0 nein 19:05
19:1014,2 °C 8,9 °C 7,2 °C 38 % 1016,4 hPa 0,0 mm 3,2 mm 0,0 km/h 7,9 km/h WSW 33,0 W/qm 0,0 nein 19:10
19:1513,8 °C 8,9 °C 7,2 °C 38 % 1016,5 hPa 0,0 mm - 0,0 km/h 7,9 km/h WSW 33,0 W/qm 0,0 nein 19:15
19:2013,3 °C 8,9 °C 7,2 °C 40 % 1016,5 hPa 0,0 mm - 0,0 km/h 6,5 km/h WSW 30,0 W/qm 0,0 nein 19:20
19:2513,1 °C 8,9 °C 7,2 °C 44 % 1016,5 hPa 0,0 mm - 0,0 km/h 0,0 km/h WSW 25,0 W/qm 0,0 nein 19:25
19:3012,8 °C 8,9 °C 7,2 °C 44 % 1016,5 hPa 0,0 mm - 0,0 km/h 0,0 km/h WSW 18,0 W/qm 0,0 nein 19:30
19:3512,4 °C 8,9 °C 7,2 °C 48 % 1016,6 hPa 0,0 mm - 0,0 km/h 0,0 km/h WSW 11,0 W/qm 0,0 nein 19:35
19:4012,0 °C 8,9 °C 7,2 °C 48 % 1016,6 hPa 0,0 mm - 0,0 km/h 0,0 km/h WSW 5,0 W/qm 0,0 nein 19:40
19:4511,7 °C 8,9 °C 7,2 °C 50 % 1016,6 hPa 0,0 mm - 0,0 km/h 0,0 km/h WSW 0,0 W/qm 0,0 nein 19:45
19:5011,4 °C 8,3 °C 7,2 °C 51 % 1016,6 hPa 0,0 mm - 0,0 km/h 0,0 km/h WSW 0,0 W/qm 0,0 nein 19:50
19:5511,2 °C 8,3 °C 7,2 °C 52 % 1016,6 hPa 0,0 mm - 0,0 km/h 0,0 km/h WSW 0,0 W/qm 0,0 nein 19:55
UhrzeitTemperaturBoden 10cmBoden 20cmFeuchteLuftdruckNiederschlagEvapotranspirationWindWindböenWindrichtungSolarstrahlungUV-IndexSonne?Uhrzeit
20:0011,1 °C 8,3 °C 7,2 °C 49 % 1016,7 hPa 0,0 mm - 0,0 km/h 0,0 km/h WSW 0,0 W/qm 0,0 nein 20:00
20:0510,9 °C 8,3 °C 7,2 °C 52 % 1016,7 hPa 0,0 mm 3,3 mm 0,0 km/h 0,0 km/h WSW 0,0 W/qm 0,0 nein 20:05
20:1010,4 °C 8,3 °C 7,8 °C 54 % 1016,7 hPa 0,0 mm 3,3 mm 0,0 km/h 0,0 km/h WSW 0,0 W/qm 0,0 nein 20:10
20:1510,1 °C 8,3 °C 7,8 °C 55 % 1016,7 hPa 0,0 mm - 0,0 km/h 0,0 km/h WSW 0,0 W/qm 0,0 nein 20:15
20:2010,0 °C 8,3 °C 7,8 °C 53 % 1016,8 hPa 0,0 mm - 0,0 km/h 0,0 km/h WSW 0,0 W/qm 0,0 nein 20:20
20:259,9 °C 8,3 °C 7,8 °C 53 % 1016,9 hPa 0,0 mm - 0,0 km/h 0,0 km/h WSW 0,0 W/qm 0,0 nein 20:25
20:309,9 °C 8,3 °C 7,8 °C 53 % 1016,9 hPa 0,0 mm - 0,0 km/h 0,0 km/h WSW 0,0 W/qm 0,0 nein 20:30
20:359,6 °C 8,3 °C 7,8 °C 56 % 1017,0 hPa 0,0 mm - 0,0 km/h 0,0 km/h WSW 0,0 W/qm 0,0 nein 20:35
20:409,0 °C 8,3 °C 7,8 °C 57 % 1017,0 hPa 0,0 mm - 0,0 km/h 0,0 km/h WSW 0,0 W/qm 0,0 nein 20:40
20:458,7 °C 8,3 °C 7,8 °C 59 % 1017,1 hPa 0,0 mm - 0,0 km/h 0,0 km/h WSW 0,0 W/qm 0,0 nein 20:45
20:508,4 °C 8,3 °C 7,8 °C 61 % 1017,2 hPa 0,0 mm - 0,0 km/h 0,0 km/h WSW 0,0 W/qm 0,0 nein 20:50
20:558,3 °C 8,3 °C 7,8 °C 60 % 1017,1 hPa 0,0 mm - 0,0 km/h 4,7 km/h WSW 0,0 W/qm 0,0 nein 20:55
21:008,2 °C 8,3 °C 7,8 °C 61 % 1017,2 hPa 0,0 mm - 0,0 km/h 4,7 km/h WSW 0,0 W/qm 0,0 nein 21:00
21:058,2 °C 8,3 °C 7,8 °C 61 % 1017,3 hPa 0,0 mm 3,3 mm 0,0 km/h 4,7 km/h WSW 0,0 W/qm 0,0 nein 21:05
21:108,0 °C 8,3 °C 7,8 °C 62 % 1017,3 hPa 0,0 mm 3,3 mm 0,0 km/h 0,0 km/h WSW 0,0 W/qm 0,0 nein 21:10
21:157,9 °C 8,3 °C 7,8 °C 62 % 1017,3 hPa 0,0 mm - 0,0 km/h 0,0 km/h WSW 0,0 W/qm 0,0 nein 21:15
21:207,4 °C 8,3 °C 7,8 °C 63 % 1017,3 hPa 0,0 mm - 0,0 km/h 0,0 km/h WSW 0,0 W/qm 0,0 nein 21:20
21:257,1 °C 8,3 °C 7,8 °C 65 % 1017,3 hPa 0,0 mm - 0,0 km/h 0,0 km/h WSW 0,0 W/qm 0,0 nein 21:25
21:307,1 °C 8,3 °C 7,8 °C 65 % 1017,3 hPa 0,0 mm - 0,0 km/h 0,0 km/h WSW 0,0 W/qm 0,0 nein 21:30
21:357,1 °C 8,3 °C 7,8 °C 65 % 1017,2 hPa 0,0 mm - 0,0 km/h 0,0 km/h WSW 0,0 W/qm 0,0 nein 21:35
21:407,0 °C 8,3 °C 7,8 °C 65 % 1017,2 hPa 0,0 mm - 0,0 km/h 0,0 km/h WSW 0,0 W/qm 0,0 nein 21:40
21:456,8 °C 8,3 °C 7,8 °C 66 % 1017,1 hPa 0,0 mm - 0,0 km/h 0,0 km/h WSW 0,0 W/qm 0,0 nein 21:45
21:506,5 °C 8,3 °C 7,8 °C 67 % 1017,1 hPa 0,0 mm - 0,0 km/h 0,0 km/h WSW 0,0 W/qm 0,0 nein 21:50
21:556,4 °C 8,3 °C 7,8 °C 68 % 1017,1 hPa 0,0 mm - 0,0 km/h 0,0 km/h WSW 0,0 W/qm 0,0 nein 21:55
UhrzeitTemperaturBoden 10cmBoden 20cmFeuchteLuftdruckNiederschlagEvapotranspirationWindWindböenWindrichtungSolarstrahlungUV-IndexSonne?Uhrzeit
22:006,2 °C 7,8 °C 7,8 °C 68 % 1017,1 hPa 0,0 mm - 0,0 km/h 0,0 km/h WSW 0,0 W/qm 0,0 nein 22:00
22:056,1 °C 7,8 °C 7,8 °C 69 % 1017,0 hPa 0,0 mm 3,3 mm 0,0 km/h 0,0 km/h WSW 0,0 W/qm 0,0 nein 22:05
22:105,9 °C 7,8 °C 7,2 °C 69 % 1017,0 hPa 0,0 mm 3,3 mm 0,0 km/h 0,0 km/h WSW 0,0 W/qm 0,0 nein 22:10
22:155,9 °C 7,8 °C 7,2 °C 69 % 1017,0 hPa 0,0 mm - 0,0 km/h 0,0 km/h WSW 0,0 W/qm 0,0 nein 22:15
22:205,6 °C 7,8 °C 7,2 °C 70 % 1017,0 hPa 0,0 mm - 0,0 km/h 0,0 km/h WSW 0,0 W/qm 0,0 nein 22:20
22:255,6 °C 7,8 °C 7,2 °C 71 % 1017,0 hPa 0,0 mm - 0,0 km/h 0,0 km/h WSW 0,0 W/qm 0,0 nein 22:25
22:305,4 °C 7,8 °C 7,2 °C 72 % 1017,0 hPa 0,0 mm - 0,0 km/h 0,0 km/h WSW 0,0 W/qm 0,0 nein 22:30
22:355,3 °C 7,8 °C 7,2 °C 72 % 1016,9 hPa 0,0 mm - 0,0 km/h 0,0 km/h WSW 0,0 W/qm 0,0 nein 22:35
22:405,1 °C 7,8 °C 7,2 °C 72 % 1017,0 hPa 0,0 mm - 0,0 km/h 0,0 km/h WSW 0,0 W/qm 0,0 nein 22:40
22:455,3 °C 7,8 °C 7,2 °C 72 % 1016,9 hPa 0,0 mm - 0,0 km/h 0,0 km/h WSW 0,0 W/qm 0,0 nein 22:45
22:505,1 °C 7,8 °C 7,2 °C 72 % 1016,9 hPa 0,0 mm - 0,0 km/h 0,0 km/h WSW 0,0 W/qm 0,0 nein 22:50
22:554,9 °C 7,8 °C 7,2 °C 73 % 1016,9 hPa 0,0 mm - 0,0 km/h 0,0 km/h WSW 0,0 W/qm 0,0 nein 22:55
23:004,9 °C 7,8 °C 7,2 °C 74 % 1016,9 hPa 0,0 mm - 0,0 km/h 0,0 km/h WSW 0,0 W/qm 0,0 nein 23:00
23:054,8 °C 7,8 °C 7,2 °C 74 % 1016,8 hPa 0,0 mm 3,3 mm 0,0 km/h 0,0 km/h WSW 0,0 W/qm 0,0 nein 23:05
23:104,7 °C 7,8 °C 7,2 °C 74 % 1016,8 hPa 0,0 mm 3,3 mm 0,0 km/h 0,0 km/h WSW 0,0 W/qm 0,0 nein 23:10
23:154,4 °C 7,8 °C 7,2 °C 74 % 1016,9 hPa 0,0 mm - 0,0 km/h 0,0 km/h WSW 0,0 W/qm 0,0 nein 23:15
23:204,5 °C 7,8 °C 7,2 °C 75 % 1016,7 hPa 0,0 mm - 0,0 km/h 0,0 km/h WSW 0,0 W/qm 0,0 nein 23:20
23:254,5 °C 7,8 °C 7,2 °C 74 % 1016,6 hPa 0,0 mm - 0,0 km/h 0,0 km/h WSW 0,0 W/qm 0,0 nein 23:25
23:304,6 °C 7,8 °C 7,2 °C 73 % 1016,7 hPa 0,0 mm - 0,0 km/h 0,0 km/h WSW 0,0 W/qm 0,0 nein 23:30
23:354,4 °C 7,8 °C 7,2 °C 75 % 1016,8 hPa 0,0 mm - 0,0 km/h 0,0 km/h WSW 0,0 W/qm 0,0 nein 23:35
23:404,3 °C 7,8 °C 7,2 °C 75 % 1016,7 hPa 0,0 mm - 0,0 km/h 0,0 km/h WSW 0,0 W/qm 0,0 nein 23:40
23:454,4 °C 7,8 °C 7,2 °C 75 % 1016,7 hPa 0,0 mm - 0,0 km/h 0,0 km/h WSW 0,0 W/qm 0,0 nein 23:45
23:504,3 °C 7,8 °C 7,2 °C 75 % 1016,7 hPa 0,0 mm - 0,0 km/h 0,0 km/h WSW 0,0 W/qm 0,0 nein 23:50
23:554,1 °C 7,8 °C 7,2 °C 76 % 1016,6 hPa 0,0 mm - 0,0 km/h 0,0 km/h WSW 0,0 W/qm 0,0 nein 23:55
Gesamt: 9,3 °C 7,1 °C 6,7 °C 65 % 1022,2 hPa 0,0 mm 61,9 mm 2,0 km/h 5,7 km/h 0 210,7 W/qm 0,6 ja

Insgesamt 288 Zeilen mal 13 Spalten = 3744 Werte werden angezeigt.

www.wetter-rosstal.de   •   www.wetter-franken.de   •   www.lightningmaps.org   •   Start   •   Kontakt / Datenschutz   •   PC-Kümmerer